Lake Eufaula Weather Center

Moon Phase Calendar



Lake Eufaula Water Level
Online Cameras

 


      

Current Conditions in Eufaula
6/24/2022 5:44:30 PM

97°F
Feels Like 109
Clear
Humidity
51%
Pressure
29.8"
Wind
7.9 mph (S)
Dew Point
75°F
UV Index
2/10 (Low)
Visibility
6 mi

Hourly Forecast

Date & Time Fri, Jun 24
5:00 PM
Fri, Jun 24
6:00 PM
Fri, Jun 24
7:00 PM
Fri, Jun 24
8:00 PM
Fri, Jun 24
9:00 PM
Fri, Jun 24
10:00 PM
Fri, Jun 24
11:00 PM
Sat, Jun 25
12:00 AM
Sat, Jun 25
1:00 AM
Sat, Jun 25
2:00 AM
Sat, Jun 25
3:00 AM
Sat, Jun 25
4:00 AM
Sat, Jun 25
5:00 AM
Sat, Jun 25
6:00 AM
Sat, Jun 25
7:00 AM
Sat, Jun 25
8:00 AM
Sat, Jun 25
9:00 AM
Sat, Jun 25
10:00 AM
Sat, Jun 25
11:00 AM
Sat, Jun 25
12:00 PM
Sat, Jun 25
1:00 PM
Sat, Jun 25
2:00 PM
Sat, Jun 25
3:00 PM
Sat, Jun 25
4:00 PM
Sat, Jun 25
5:00 PM
Sat, Jun 25
6:00 PM
Sat, Jun 25
7:00 PM
Sat, Jun 25
8:00 PM
Sat, Jun 25
9:00 PM
Sat, Jun 25
10:00 PM
Sat, Jun 25
11:00 PM
Sun, Jun 26
12:00 AM
Sun, Jun 26
1:00 AM
Sun, Jun 26
2:00 AM
Sun, Jun 26
3:00 AM
Sun, Jun 26
4:00 AM
Sun, Jun 26
5:00 AM
Sun, Jun 26
6:00 AM
Sun, Jun 26
7:00 AM
Sun, Jun 26
8:00 AM
Sun, Jun 26
9:00 AM
Sun, Jun 26
10:00 AM
Sun, Jun 26
11:00 AM
Sun, Jun 26
12:00 PM
Sun, Jun 26
1:00 PM
Sun, Jun 26
2:00 PM
Sun, Jun 26
3:00 PM
Sun, Jun 26
4:00 PM
Condition
Clear

Clear

Clear

Clear

Clear

Clear

Clear

Clear

Clear

Clear

Clear

Clear

Clear

Clear

Clear

Clear

Clear

Clear

Clear

Clear

Clear

Clear

Clear

Clear

Clear

Clear

Clear

Clear

Clear

Clear

Clear

Clear

Clear

Clear

Clear

Clear

Rain

Rain

Rain

Clouds

Clouds

Clouds

Clouds

Rain

Clouds

Clouds

Clouds

Clouds
Temperature 97°F97°F96°F93°F89°F84°F80°F79°F80°F81°F80°F79°F79°F78°F76°F80°F84°F89°F93°F96°F99°F101°F102°F102°F102°F100°F96°F88°F85°F83°F82°F80°F78°F77°F75°F75°F73°F71°F71°F71°F73°F75°F78°F81°F83°F85°F85°F85°F
Feels Like 108°F109°F107°F103°F95°F88°F82°F79°F82°F82°F80°F79°F79°F79°F77°F80°F87°F92°F95°F98°F101°F104°F104°F105°F104°F104°F101°F92°F87°F85°F84°F82°F79°F78°F77°F76°F74°F72°F72°F73°F74°F76°F79°F83°F86°F87°F87°F87°F
Cloudiness 4%5%5%3%2%1%0%0%0%0%0%0%0%0%0%0%0%0%0%0%0%0%0%0%0%0%1%6%10%10%9%8%8%2%4%5%13%27%39%100%100%99%99%98%94%36%36%31%
Visibility 6 mi6 mi6 mi6 mi6 mi6 mi6 mi6 mi6 mi6 mi6 mi6 mi6 mi6 mi6 mi6 mi6 mi6 mi6 mi6 mi6 mi6 mi6 mi6 mi6 mi6 mi6 mi6 mi6 mi6 mi6 mi6 mi6 mi6 mi6 mi6 mi6 mi6 mi6 mi6 mi6 mi6 mi6 mi6 mi6 mi6 mi6 mi6 mi
Precipitation 0%0%0%0%0%0%0%0%0%0%0%0%0%0%0%0%0%0%0%0%0%0%0%0%0%0%0%0%0%0%0%0%0%1%5%24%51%68%66%10%12%20%24%27%27%0%0%0%
Humidity 47%51%49%54%58%63%66%67%62%58%60%62%64%64%72%68%57%48%40%35%32%30%28%28%28%31%40%53%54%54%55%62%74%79%86%90%92%95%96%95%90%80%70%65%57%54%52%50%
Dew Point 74°F75°F74°F74°F72°F70°F68°F67°F66°F65°F65°F65°F66°F65°F66°F68°F67°F66°F65°F64°F63°F63°F63°F63°F63°F64°F68°F69°F67°F65°F64°F66°F69°F70°F71°F71°F70°F69°F69°F69°F69°F68°F67°F67°F66°F66°F65°F64°F
Pressure 29.8"29.8"29.8"29.8"29.83"29.83"29.85"29.85"29.85"29.85"29.85"29.85"29.85"29.88"29.91"29.91"29.91"29.91"29.91"29.91"29.91"29.88"29.88"29.85"29.85"29.85"29.85"29.85"29.88"29.91"29.94"29.97"29.97"30"30"30.03"30.06"30.09"30.12"30.15"30.15"30.18"30.15"30.15"30.12"30.15"30.12"30.12"
Wind Speed 8.4 mph7.9 mph7.5 mph6.2 mph6.6 mph6.2 mph6.1 mph6.5 mph8.1 mph8.3 mph7.8 mph7.9 mph8.3 mph6.9 mph5.8 mph7.2 mph9.8 mph10.7 mph10.8 mph10.5 mph9.9 mph10.2 mph9.9 mph9.3 mph8.5 mph7.5 mph7 mph6.2 mph6.1 mph5.6 mph3.1 mph7.1 mph5.1 mph4.9 mph5.4 mph11.3 mph12.6 mph12.7 mph13 mph13.2 mph13.4 mph14.9 mph15.7 mph16 mph15.7 mph14.5 mph14.3 mph14.3 mph
Wind
Direction
192°
SSW
186°
S
176°
S
153°
SSE
135°
SE
133°
SE
130°
SE
140°
SE
151°
SSE
153°
SSE
153°
SSE
157°
SSE
168°
SSE
159°
SSE
144°
SE
156°
SSE
179°
S
195°
SSW
201°
SSW
203°
SSW
208°
SSW
215°
SW
217°
SW
217°
SW
213°
SSW
199°
SSW
173°
S
163°
SSE
170°
S
161°
SSE
138°
SE
358°
N
23°
NNE

N
358°
N
351°
N
357°
N

N
10°
N
15°
NNE
20°
NNE
20°
NNE
22°
NNE
33°
NNE
39°
NE
20°
NNE
21°
NNE
17°
NNE

Daily Forecast

Date High Low Precip. Humidity
Today
Jun 24

Clear
98 °F
73 °F
0%
37%
Saturday
Jun 25

Clear
102 °F
76 °F
0%
32%
Sunday
Jun 26

Rain
85 °F
70 °F
68%
57%
Monday
Jun 27

Clouds
84 °F
63 °F
5%
39%
Tuesday
Jun 28

Clouds
86 °F
61 °F
0%
37%
Wednesday
Jun 29

Clouds
90 °F
63 °F
0%
31%
Thursday
Jun 30

Clear
92 °F
68 °F
7%
45%
Friday
Jul 1

Rain
79 °F
70 °F
47%
85%
Saturday
Jul 2

Clouds
97 °F
70 °F
19%
46%
Sunday
Jul 3

Rain
93 °F
71 °F
85%
44%
Monday
Jul 4

Rain
100 °F
75 °F
66%
44%
Tuesday
Jul 5

Clear
100 °F
75 °F
0%
43%
Wednesday
Jul 6

Clear
100 °F
77 °F
0%
39%
Thursday
Jul 7

Clear
101 °F
79 °F
0%
34%
Friday
Jul 8

Clear
104 °F
80 °F
0%
30%
Saturday
Jul 9

Clear
107 °F
80 °F
0%
28%

Temperature 8-14 Day Outlook



Precipitation 8-14 Day Outlook






About Us
Contact Us
Site Map
Search Site
Advertise With Us
   
EufaulaOK.USLakes.info
THE LAKE EUFAULA WEBSITE

Copyright 2022, Lakes Online
Privacy    |    Legal